Weather reports worldwide

Advertisment
Capo Bellavista, Italy (16550): temperature & dewpoint: 17.10.2020 01:00:00 - 23.10.2020 01:00:00 (CEST)Capo Bellavista, Italy (16550): wind speed: 17.10.2020 01:00:00 - 23.10.2020 01:00:00 (CEST)Capo Bellavista, Italy (16550): wind direction: 17.10.2020 01:00:00 - 23.10.2020 01:00:00 (CEST)Capo Bellavista, Italy (16550): reduced air pressure: 17.10.2020 01:00:00 - 23.10.2020 01:00:00 (CEST)Capo Bellavista, Italy (16550): visibility: 17.10.2020 01:00:00 - 23.10.2020 01:00:00 (CEST)Capo Bellavista, Italy (16550): sunshine duration: 17.10.2020 01:00:00 - 23.10.2020 01:00:00 (CEST)
Date & Time tt [°C] td [°C] ff [km/h] ff [kn] dd ppp [hPa] vv [km] sd [min]
23.10.2020 01:00:00 19,8 18,5 26 14 SSW 1021,4 20 -
23.10.2020 00:00:00 19,8 19,0 18 10 SSW 1021,6 20 -
22.10.2020 23:00:00 19,8 19,1 18 10 SSW 1021,6 20 -
22.10.2020 22:00:00 19,8 19,1 26 14 SSW 1021,6 20 -
22.10.2020 21:00:00 19,8 19,3 22 12 SSW 1021,6 20 -
22.10.2020 20:00:00 19,8 19,0 15 8 SSE 1021,6 20 -
22.10.2020 19:00:00 19,8 19,0 18 10 SSE 1021,6 20 -
22.10.2020 18:00:00 20,4 17,8 15 8 SSW 1021,6 20 12
22.10.2020 17:00:00 22,0 19,4 15 8 SSE 1021,5 20 54
22.10.2020 16:00:00 24,0 18,4 9 5 WSW 1021,5 30 60
22.10.2020 15:00:00 25,2 17,9 15 8 SSW 1023,3 30 60
22.10.2020 14:00:00 25,0 17,7 11 6 W 1023,4 30 60
22.10.2020 13:00:00 25,0 18,0 4 2 WNW 1023,4 20 60
22.10.2020 12:00:00 25,0 16,7 4 2 W 1023,5 20 60
22.10.2020 11:00:00 24,0 17,3 4 2 SE 1023,8 20 60
22.10.2020 10:00:00 20,4 15,8 16 9 SSE 1022,8 20 24
22.10.2020 09:00:00 17,0 13,3 5 3 WNW 1021,8 30 0
22.10.2020 08:00:00 17,4 14,9 4 2 W 1021,8 30 0
22.10.2020 07:00:00 17,0 14,5 11 6 NW 1021,8 20 -
22.10.2020 06:00:00 18,0 18,0 8 4 S 1021,7 20 -
22.10.2020 05:00:00 18,2 18,2 11 6 SSE 1021,7 20 -
22.10.2020 04:00:00 18,4 18,4 9 5 SE 1021,7 20 -
22.10.2020 03:00:00 18,4 18,4 8 4 SSE 1021,7 20 -
22.10.2020 02:00:00 18,6 18,6 8 4 S 1021,7 20 -
22.10.2020 01:00:00 18,6 18,6 9 5 SSE 1021,7 20 -
22.10.2020 00:00:00 18,8 18,8 11 6 SE 1021,6 20 -
21.10.2020 23:00:00 18,8 18,8 9 5 SSE 1021,7 20 -
21.10.2020 22:00:00 19,0 19,0 11 6 SE 1021,6 20 -
21.10.2020 21:00:00 19,0 19,0 9 5 SE 1021,2 20 -
21.10.2020 20:00:00 18,8 18,8 9 5 W 1021,0 20 -
21.10.2020 19:00:00 19,2 19,2 11 6 SSE 1021,0 20 -
21.10.2020 18:00:00 20,4 20,4 11 6 S 1020,9 20 0
21.10.2020 17:00:00 22,0 20,1 13 7 N 1020,9 30 0
21.10.2020 16:00:00 24,0 20,7 15 8 NW 1020,8 30 60
21.10.2020 15:00:00 23,0 19,8 9 5 SSE 1021,1 30 48
21.10.2020 14:00:00 23,4 20,3 9 5 S 1021,7 30 30
21.10.2020 13:00:00 18,2 14,3 11 6 ESE 1022,5 30 42
21.10.2020 12:00:00 21,4 18,2 11 6 N 1022,4 30 36
21.10.2020 11:00:00 18,6 15,8 11 6 SW 1022,3 30 24
21.10.2020 10:00:00 16,2 12,4 15 8 WNW 1021,9 30 0
21.10.2020 09:00:00 15,0 11,4 15 8 WNW 1021,9 30 0
21.10.2020 08:00:00 15,0 11,6 16 9 WNW 1021,5 30 0
21.10.2020 07:00:00 15,0 12,0 15 8 WNW 1021,6 20 -
21.10.2020 06:00:00 15,0 11,6 11 6 W 1022,0 20 -
21.10.2020 05:00:00 15,2 12,3 15 8 W 1022,0 20 -
21.10.2020 04:00:00 15,0 12,0 16 9 WNW 1022,5 20 -
21.10.2020 03:00:00 14,8 12,0 15 8 WNW 1012,8 20 -
21.10.2020 02:00:00 14,8 12,0 18 10 WNW 1023,0 20 -
21.10.2020 01:00:00 15,0 11,6 16 9 WNW 1023,1 20 -
21.10.2020 00:00:00 15,0 11,6 15 8 WNW 1023,2 20 -
20.10.2020 23:00:00 15,0 12,0 18 10 WNW 1023,3 20 -
20.10.2020 22:00:00 15,0 11,8 15 8 WNW 1023,3 30 -
20.10.2020 21:00:00 15,2 11,8 9 5 WNW 1023,3 30 -
20.10.2020 20:00:00 17,2 11,7 15 8 SSE 1023,1 30 -
20.10.2020 19:00:00 17,5 11,1 15 8 SSE 1023,1 30 0
20.10.2020 18:00:00 21,4 10,9 8 4 S 1022,9 30 60
20.10.2020 17:00:00 22,8 12,1 9 5 WSW 1022,8 30 60
20.10.2020 16:00:00 23,0 11,7 8 4 SW 1023,0 30 60
20.10.2020 15:00:00 23,0 11,7 18 10 S 1023,7 30 -
20.10.2020 14:00:00 23,0 12,3 15 8 SE 1023,7 30 60
20.10.2020 13:00:00 24,0 13,0 8 4 SSE 1023,4 30 60
20.10.2020 12:00:00 22,0 13,4 5 3 N 1023,6 30 60
20.10.2020 11:00:00 19,0 13,0 9 5 SSW 1023,7 30 60
20.10.2020 10:00:00 16,4 11,8 11 6 WNW 1023,7 30 60
20.10.2020 09:00:00 14,0 9,7 18 10 NW 1023,6 30 12
20.10.2020 08:00:00 13,2 9,7 22 12 NW 1023,8 30 0
20.10.2020 07:00:00 13,8 10,3 15 8 WNW 1023,7 30 -
20.10.2020 06:00:00 13,6 10,1 24 13 NW 1023,6 30 -
20.10.2020 05:00:00 14,0 10,5 16 9 E 1023,5 30 -
20.10.2020 04:00:00 14,2 11,1 21 11 NW 1023,9 30 -
20.10.2020 03:00:00 14,0 11,6 22 12 NW 1023,9 30 -
20.10.2020 02:00:00 14,8 12,5 21 11 NW 1023,9 30 -
20.10.2020 01:00:00 14,4 12,1 22 12 NW 1023,9 30 -
20.10.2020 00:00:00 15,0 12,4 18 10 NW 1023,9 10 -
19.10.2020 23:00:00 15,4 12,8 15 8 WNW 1023,7 30 -
19.10.2020 22:00:00 16,0 12,7 9 5 WNW 1023,6 30 -
19.10.2020 21:00:00 17,0 13,4 9 5 W 1023,3 30 -
19.10.2020 20:00:00 17,0 13,1 8 4 S 1023,1 30 -
19.10.2020 19:00:00 17,4 12,8 5 3 S 1023,0 30 0
19.10.2020 18:00:00 19,0 12,5 5 3 S 1022,9 30 30
19.10.2020 17:00:00 19,8 13,4 9 5 WSW 1022,9 30 36
19.10.2020 16:00:00 20,0 14,7 13 7 ESE 1023,0 30 30
19.10.2020 15:00:00 20,2 14,5 18 10 WSW 1023,5 30 54
19.10.2020 14:00:00 21,0 14,1 18 10 E 1023,6 30 60
19.10.2020 13:00:00 21,0 13,4 21 11 SW 1023,6 30 60
19.10.2020 12:00:00 21,0 13,0 16 9 E 1023,6 30 60
19.10.2020 11:00:00 19,6 13,2 13 7 NE 1023,3 30 60
19.10.2020 10:00:00 15,2 10,7 8 4 NNW 1022,9 30 60
19.10.2020 09:00:00 13,0 10,2 21 11 NW 1023,1 30 24
19.10.2020 08:00:00 13,0 9,8 21 11 NW 1022,2 30 0
19.10.2020 07:00:00 13,0 10,7 21 11 WNW 1022,1 20 -
19.10.2020 06:00:00 13,4 10,9 24 13 NW 1022,1 20 -
19.10.2020 05:00:00 13,8 11,3 22 12 NW 1022,0 20 -
19.10.2020 04:00:00 14,0 11,5 24 13 NW 1022,0 20 -
19.10.2020 03:00:00 14,2 11,7 22 12 NW 1022,0 20 -
19.10.2020 02:00:00 14,8 11,4 21 11 NW 1022,0 20 -
19.10.2020 01:00:00 14,6 12,6 18 10 NNW 1022,0 20 -
19.10.2020 00:00:00 15,0 13,4 13 7 NW 1022,0 20 -
18.10.2020 23:00:00 16,0 13,8 15 8 NNE 1021,7 20 -
18.10.2020 22:00:00 16,6 13,5 15 8 N 1020,8 20 -
18.10.2020 21:00:00 16,6 13,9 13 7 E 1020,7 20 -
18.10.2020 20:00:00 17,2 14,3 21 11 SSW 1020,5 20 0
18.10.2020 19:00:00 17,8 12,7 5 3 NNE 1019,8 30 0
18.10.2020 18:00:00 18,6 13,0 8 4 SE 1019,7 30 0
18.10.2020 17:00:00 18,8 12,8 8 4 W 1019,6 30 0
18.10.2020 16:00:00 19,2 12,9 16 9 SE 1019,5 30 0
18.10.2020 15:00:00 19,8 13,0 22 12 S 1019,6 30 24
18.10.2020 14:00:00 21,0 11,1 16 9 ESE 1019,6 30 30
18.10.2020 13:00:00 21,2 9,8 8 4 NNE 1019,5 30 24
18.10.2020 12:00:00 22,0 8,9 8 4 WSW 1019,3 30 60
18.10.2020 11:00:00 19,0 6,8 4 2 S 1019,0 30 60
18.10.2020 10:00:00 15,0 5,8 11 6 NW 1019,0 30 30
18.10.2020 09:00:00 13,8 5,2 18 10 NW 1018,2 30 30
18.10.2020 08:00:00 14,0 4,9 22 12 NW 1017,9 20 0
18.10.2020 07:00:00 13,8 4,9 21 11 NW 1018,1 20 -
18.10.2020 06:00:00 13,6 5,5 16 9 WNW 1018,1 20 -
18.10.2020 05:00:00 14,2 6,1 16 9 WNW 1018,0 20 -
18.10.2020 04:00:00 13,6 6,0 2 1 NW 1018,0 20 -
18.10.2020 03:00:00 13,8 6,2 24 13 NW 1018,1 20 -
18.10.2020 02:00:00 13,8 6,2 22 12 NW 1018,1 20 -
18.10.2020 01:00:00 13,6 6,5 24 13 NW 1018,1 20 -
18.10.2020 00:00:00 13,8 6,7 28 15 NW 1018,1 20 -
17.10.2020 23:00:00 14,2 7,0 24 13 NW 1017,9 20 -
17.10.2020 22:00:00 13,8 6,7 26 14 NW 1017,5 20 -
17.10.2020 21:00:00 14,2 7,5 22 12 NW 1017,1 20 -
17.10.2020 20:00:00 15,6 7,9 8 4 NW 1016,7 20 -
17.10.2020 19:00:00 16,8 7,7 4 2 S 1015,9 30 30
17.10.2020 18:00:00 19,8 8,8 4 2 WNW 1015,5 30 60
17.10.2020 17:00:00 21,0 9,6 11 6 S 1015,4 30 48
17.10.2020 16:00:00 19,8 8,2 13 7 SE 1015,6 30 30
17.10.2020 15:00:00 22,4 10,9 16 9 ESE 1015,5 30 60
17.10.2020 14:00:00 22,0 7,8 11 6 SE 1015,6 30 60
17.10.2020 13:00:00 23,0 7,9 9 5 SE 1015,5 10 60
17.10.2020 12:00:00 18,8 7,3 8 4 SE 1015,7 30 60
17.10.2020 11:00:00 18,6 6,8 4 2 W 1015,5 30 60
17.10.2020 10:00:00 17,6 8,2 4 2 NE 1015,0 30 60
17.10.2020 09:00:00 15,4 6,4 4 2 NNW 1014,6 30 60
17.10.2020 08:00:00 14,4 7,0 5 3 E 1014,1 30 30
17.10.2020 07:00:00 14,2 5,5 13 7 SSW 1014,1 20 -
17.10.2020 06:00:00 14,6 4,6 8 4 WSW 1014,5 20 -
17.10.2020 05:00:00 14,6 3,4 13 7 W 1014,4 20 -
17.10.2020 04:00:00 14,8 5,0 9 5 W 1014,5 20 -
17.10.2020 03:00:00 15,0 4,1 11 6 W 1014,4 20 -
17.10.2020 02:00:00 15,0 5,0 8 4 WSW 1014,5 20 -
17.10.2020 01:00:00 15,2 4,6 9 5 W 1014,4 20 -

tt = temperature
td = dewpoint
ff = wind speed
dd = wind direction
ppp = reduced air pressure
vv = visibility
sd = sunshine duration

Next stations